OpenBCM V2.0.2 (Linux)

Packet Radio Mailbox

IZ3LSV

[San Dona' di P. JN]

 Login: GUEST





  
LU9DCE > KEPS     14.07.18 19:28l 253 Lines 12468 Bytes #999 (0) @ WW
BID : 10414_LU9DCE
Read: GUEST
Subj: SAT TLE 11 07 2018
Path: IZ3LSV<IW8PGT<IR2UBX<DB0RES<DB0OVN<DB0GOS<ON0AR<SV1CMG<OK0NBR<IW0QNL<
      VE2PKT<LU3DVN<LW2DQC<LU9DCE
Sent: 180711/0701Z 10414@LU9DCE.TOR.BA.ARG.SOAM BPQ6.0.16


            __    _  _  ___  ____   ___  ____    ____  ____  ____
           (  )  / )( \/ _ \(    \ / __)(  __)  (  _ \(  _ \/ ___)
           / (_/\) \/ (\__  )) D (( (__  ) _)    ) _ ( ) _ (\___ \
           \____/\____/(___/(____/ \___)(____)  (____/(____/(____/
               ESTACION DE PACKET RADIO - BUENOS AIRES (GF05OM)
                   BOLETINES INFORMATIVOS PROGRAMADOS (BIP)
                    LU9DCE@GMX.COM - RF 145070 @ 1200 BAUD
                   AXIP NETROM -- LU9DCE.DYNU.COM UDP 10093

+------------------------------------------------------------------------------+
OSCAR 7
1  7530U 74089B   18191.86812542 -.00000044 +00000-0 +35212-5 0  9996
2  7530 101.6885 158.8350 0011717 290.9313 096.8727 12.53633344997334
OSCAR 11 (UoSAT 2)
1 14781U 84021B   18191.68293714 +.00000065 +00000-0 +14145-4 0  9996
2 14781 097.6473 226.8949 0008783 016.3954 343.7543 14.83016265826925
OSCAR 19 (LUSAT)
1 20442U 90005G   18191.81461597 -.00000026  00000-0  67548-5 0  9991
2 20442  98.6108 130.1622 0012964  81.3318 278.9334 14.32899536487271
EYESAT A
1 22825U 93061C   18191.93982923 -.00000013 +00000-0 +12978-4 0  9999
2 22825 098.8641 168.4878 0007292 279.2387 080.7970 14.30034308292692
ITAMSAT
1 22826U 93061D   18191.88119802 -.00000012 +00000-0 +13101-4 0  9990
2 22826 098.8581 168.4628 0007806 267.4780 092.5508 14.30365936292890
RADIO ROSTO
1 23439U 94085A   18191.76479972 -.00000039 +00000-0 +89093-4 0  9994
2 23439 064.8182 310.7019 0156614 177.8351 334.6019 11.27567462969223
JAS 2
1 24278U 96046B   18191.52276925 -.00000016  00000-0  17723-4 0  9998
2 24278  98.5165  27.0607 0351211  50.4958 312.6683 13.53084662 81393
TECHSAT 1B
1 25397U 98043D   18191.85710084 -.00000033 +00000-0 +46119-5 0  9996
2 25397 098.6508 131.9054 0000943 012.3395 347.7807 14.23648097038872
ISS (ZARYA)
1 25544U 98067A   18192.20321045 -.00303248  00000-0 -47899-2 0  9999
2 25544  51.6378 259.0170 0003100 289.4288 167.4668 15.53898719122257
PCSAT
1 26931U 01043C   18191.91657752 -.00000033 +00000-0 +19111-4 0  9995
2 26931 067.0501 168.1798 0008007 271.1816 088.8368 14.30510433875873
SAUDISAT 1C
1 27607U 02058C   18191.93475875 -.00000040 +00000-0 +15116-4 0  9998
2 27607 064.5555 017.4449 0067699 323.2507 036.3963 14.75463336836337
CUTE-1
1 27844U 03031E   18191.95012862 +.00000045 +00000-0 +40068-4 0  9996
2 27844 098.6861 200.2553 0008768 307.7784 052.2599 14.22122004779538
CUBESAT XI 4
1 27848U 03031J   18191.91608276 +.00000035 +00000-0 +35634-4 0  9998
2 27848 098.6946 200.6278 0008849 319.4533 040.5985 14.21725163779405
MOZHAYETS 4
1 27939U 03042A   18191.92631191 +.00000066 +00000-0 +20391-4 0  9992
2 27939 097.9937 330.4513 0014311 075.5274 035.2251 14.66699590790150
CUBESAT XI 5
1 28895U 05043F   18191.93150767 +.00000066 +00000-0 +21424-4 0  9991
2 28895 097.9121 342.4288 0016679 359.4823 000.6359 14.63560680677111
CUTE-1.7+APD II
1 32785U 08021C   18191.85061793 +.00000169 +00000-0 +23996-4 0  9994
2 32785 097.5464 202.8986 0012152 326.1067 033.9373 14.88142678552620
DELFI C3
1 32789U 08021G   18191.69735671 +.00001490 +00000-0 +10588-3 0  9993
2 32789 097.5104 245.9104 0011660 210.9777 149.0763 15.06143817555224
SEEDS
1 32791U 08021J   18191.69924827 +.00000189 +00000-0 +24744-4 0  9993
2 32791 097.5351 208.1660 0011986 304.5197 055.4890 14.90582339552930
YUBELEINY
1 32953U 08025A   18191.94317368 +.00000040 +00000-0 +21960-3 0  9993
2 32953 082.5031 357.9013 0019600 155.9199 204.2801 12.43084239459726
PRISM (HITOMI)
1 33493U 09002B   18191.77494324  .00000226  00000-0  25621-4 0  9993
2 33493  98.1294  94.7723 0013675 238.8370 121.1474 14.96261899513871
KKS-1 (KISEKI)
1 33499U 09002H   18191.91649388 +.00000092 +00000-0 +21672-4 0  9990
2 33499 098.3567 014.4536 0008483 210.4344 149.6373 14.75343078508257
SWISSCUBE
1 35932U 09051B   18191.93653714 +.00000086 +00000-0 +30525-4 0  9998
2 35932 098.5483 343.6712 0008630 131.8372 228.3563 14.56174046466855
BEESAT
1 35933U 09051C   18191.89337195 +.00000088 +00000-0 +30879-4 0  9990
2 35933 098.5522 345.1897 0006633 141.7790 218.3878 14.56276561466916
ITUPSAT 1
1 35935U 09051E   18191.89280511 +.00000072 +00000-0 +27758-4 0  9996
2 35935 098.5634 345.4416 0008996 139.8911 220.2951 14.55452247466740
XIWANG-1 (HOPE-1)
1 36122U 09072B   18191.95407648 -.00000054 +00000-0 -30842-4 0  9997
2 36122 100.0744 205.4766 0008175 060.7605 299.4325 13.16345291411675
TISAT 1
1 36799U 10035E   18192.07734789  .00000284  00000-0  34939-4 0  9995
2 36799  98.1095 328.9304 0013530 126.8311 233.4150 14.90829518433714
JUGNU
1 37839U 11058B   18191.60025907 +.00000313 +00000-0 +25003-4 0  9995
2 37839 019.9606 255.2814 0018952 144.2468 005.2989 14.12623080348571
SRMSAT
1 37841U 11058D   18191.64821663 +.00000297 +00000-0 +17945-4 0  9992
2 37841 019.9726 304.6779 0012003 028.5944 098.7036 14.10609537348108
M-CUBED/EXP-1 PRIME
1 37855U 11061F   18191.88272532 +.00000930 +00000-0 +55321-4 0  9996
2 37855 101.7151 266.5346 0176235 012.1579 348.3803 15.04524465364746
HORYU 2
1 38340U 12025D   18191.94386494 +.00000149 +00000-0 +29903-4 0  9996
2 38340 098.3647 214.4784 0012601 131.0908 229.1391 14.75572594320202
STRAND 1
1 39090U 13009E   18191.53746671  .00000046  00000-0  31443-4 0  9992
2 39090  98.5198  37.6157 0008288 222.9260 137.1280 14.35032290281171
SOMP
1 39134U 13015E   18191.89814867 +.00000741 +00000-0 +44437-4 0  9999
2 39134 064.8640 050.2055 0009458 216.1554 143.8934 15.19239916288126
BEESAT 3
1 39135U 13015F   18191.89315014 +.00000605 +00000-0 +40653-4 0  9995
2 39135 064.8698 063.8862 0018985 237.8987 122.0297 15.16738389287856
BEESAT 2
1 39136U 13015G   18191.93717741 +.00000436 +00000-0 +32514-4 0  9993
2 39136 064.8701 066.5959 0020484 233.7421 126.1812 15.16202122287808
CUBEBUG 1
1 39153U 13018D   18191.89759166 +.00000112 +00000-0 +21585-4 0  9994
2 39153 097.9799 287.0089 0015962 225.8641 134.1259 14.80411189281012
ZACUBE
1 39417U 13066B   18191.96282882 +.00000139 +00000-0 +23805-4 0  9990
2 39417 097.5855 219.3304 0060695 077.7269 283.0732 14.80951222250311
TRITON 1
1 39427U 13066M   18191.95762636 +.00000155 +00000-0 +32710-4 0  9993
2 39427 097.6422 186.3123 0113928 182.4291 177.6376 14.67684427247876
GOMX 1
1 39430U 13066Q   18191.89387878  .00000145  00000-0  35738-4 0  9993
2 39430  97.6990 167.0630 0149985 255.6338 102.8174 14.59096031246601
HUMSAT D
1 39433U 13066T   18191.85012668  .00000323  00000-0  37124-4 0  9993
2 39433  97.6020 247.3967 0031009   6.7931 353.3702 14.91893827251963
CUBEBUG 2
1 39440U 13066AA  18192.00874741  .00000164  00000-0  29635-4 0  9998
2 39440  97.6004 205.8295 0081910 117.6669 243.2884 14.75689246249439
FUNCUBE 1
1 39444U 13066AE  18191.60856899 +.00000226 +00000-0 +34113-4 0  9997
2 39444 097.5863 220.5499 0059774 074.2755 286.5041 14.81735787248536
UWE-3
1 39446U 13066AG  18191.58452970  .00000174  00000-0  29706-4 0  9992
2 39446  97.5915 211.7964 0071801  99.3085 261.6255 14.78223772248571
SPROUT
1 39770U 14029E   18191.87822766 +.00000562 +00000-0 +68991-4 0  9998
2 39770 097.8761 292.7280 0010185 126.6796 233.5347 14.86890448223880
UNISAT 6
1 40012U 14033C   18191.70484918  .00000152  00000-0  30139-4 0  9997
2 40012  97.8052  67.1020 0059650 122.7448 237.9529 14.73835437218169
DUCHIFAT 1
1 40021U 14033M   18191.82634009 +.00000203 +00000-0 +26744-4 0  9992
2 40021 097.9155 110.5882 0014489 099.0371 261.2486 14.90334096220478
QB50P1
1 40025U 14033R   18191.80632109 +.00000166 +00000-0 +23792-4 0  9991
2 40025 097.9044 107.1564 0013918 105.4447 254.8308 14.88734577219799
CHUBUSAT 1
1 40300U 14070C   18191.77621685  .00000600  00000-0  29523-4 0  9992
2 40300  97.3613 268.9652 0019938 176.1192 335.9691 15.21613240203863
NUDT-PHONESAT
1 40900U 15049B   18191.98305094  .00001611  00000-0  74783-4 0  9992
2 40900  97.4405 199.9607 0012010 311.5932  48.4274 15.21426455155536
ZDPS 2A
1 40901U 15049C   18192.08570291  .00000656  00000-0  36393-4 0  9991
2 40901  97.4583 198.0584 0012534 320.6292  39.4030 15.17138512155280
ZDPS 2B
1 40902U 15049D   18191.93072554 +.00000757 +00000-0 +41726-4 0  9992
2 40902 097.4484 195.8902 0012536 318.0269 042.0003 15.16932834155241
XW-2A
1 40903U 15049E   18191.82003060  .00001515  00000-0  39285-4 0  9997
2 40903  97.3823 226.9091 0012674 309.8392  50.1738 15.40595577157446
KAITUO 1A
1 40904U 15049F   18191.78786836  .00000381  00000-0  23880-4 0  9996
2 40904  97.4587 194.9316 0013821 322.6709 123.0962 15.15049960155077
OBJECT G
1 40905U 15049G   18191.94276737 +.00000312 +00000-0 +20772-4 0  9990
2 40905 097.4587 193.1198 0014547 313.0906 046.9107 15.13999230155016
XW-2C
1 40906U 15049H   18191.96030159 +.00000471 +00000-0 +28561-4 0  9999
2 40906 097.4597 195.0161 0013735 312.2507 047.7560 15.15230197155097
XW-2D
1 40907U 15049J   18191.91036491 +.00000540 +00000-0 +32058-4 0  9993
2 40907 097.4572 194.6613 0013040 310.1831 049.8259 15.15384002155097
LILACSAT 2
1 40908U 15049K   18192.07804571  .00000283  00000-0  19399-4 0  9991
2 40908  97.4684 194.1536 0014750 311.2480  48.7480 15.13535373154980
XW-2F
1 40910U 15049M   18191.84015475  .00000799  00000-0  44261-4 0  9993
2 40910  97.4571 195.9504 0013646 305.3560  54.6397 15.16595225155044
XW-2B
1 40911U 15049N   18191.92875512 +.00000524 +00000-0 +31260-4 0  9990
2 40911 097.4606 195.2259 0012966 310.8279 049.1828 15.15326954154997
KAITUO 1B
1 40912U 15049P   18191.80514883  .00000978  00000-0  50171-4 0  9994
2 40912  97.4503 198.7978 0013638 291.9350 153.6770 15.18820504155256
TIANWANG 1C (TW-1C)
1 40926U 15051B   18192.09725484  .00006443  00000-0  11888-3 0  9999
2 40926  97.1816 234.3311 0009517 178.8179 233.5638 15.49410929157013
